Location: Conflandey
(47.7287°N, 6.0456°E)
Time: 04:05:04
(UTC+00:00)

MOS 1-B Rocket - Pass Details

Date: 24 October 2021
Orbit: 890 x 1605 km, 99.0° (Epoch: 05 December)

Event Time Altitude Azimuth Distance (km) Brightness Sun altitude
Rises 17:21:03 0° 18° (NNE) 4,024 7.0 -9.0°
Reaches altitude 10° 17:23:55 10° 24° (NNE) 2,957 6.2 -9.5°
Maximum altitude 17:30:12 46° 97° (E) 1,299 4.3 -10.6°
Drops below altitude 10° 17:35:45 10° 170° (S) 2,615 6.2 -11.5°
Sets 17:38:08 0° 177° (S) 3,517 7.0 -11.9°
